Capitol Logistics 780


RKSI
Incheon International Airport
Seoul, KR
RCTP
Taiwan Taoyuan International Airport
Taipei, TW

Route Details

Aircraft Information
Primary: Boeing 747-400BCF
Backup: Boeing 777-200LRF
Route Data
Distance: 788nm
Sched. Duration: 2h 45m
Avg. Duration: 2h 23m (-22m)
Times Flown: 5
Recm'd Route: BOPTA1K BOPTA Z51 BEDES Y711 MUGUS Y742 SALMI Q11 DRAKE DRAKE1B
Planned Altitude: 36,000ft
Origin Wx: RKSI 032200Z 28003KT CAVOK 21/16 Q1008 NOSIG
Dest. Wx: RCTP 032200Z 19004KT 150V220 9999 FEW015 BKN180 28/26 Q1009 NOSIG RMK A2982
Notes:

Financial History
Total Freight: 888,176lbs
Average Load: 177,635lbs/flt
Fuel Used: 249,393lbs
Avg. Fuel Used: 49,879lbs/flt
Fuel Expense: $199,514
Avg. Fuel Expense: $39,903
Avg. Fuel Cost: $0.80/lbs
Total Gross Income: $3,250,366
Pilot Pay: $1,165
Total Expenses: $351,300
Total Revenue: $2,696,511
Average Revenue: $650,073.26